Temperature / humidity sensor readings

 Timestamp   Temperature   Humidity 
 2019-02-23 17:46:03  22   36 
 2019-02-23 17:45:53  22   37 
 2019-02-23 17:39:01  22   47 
 2019-02-23 17:38:51  22   52 
 2019-02-23 17:38:40  22   56 
 2019-02-23 17:38:30  22   37 
 2019-02-23 17:38:20  22   37 
 2019-02-23 17:38:10  22   37 
 2019-02-23 17:30:57  22   37 
 2019-02-23 17:30:46  22   37 
 2019-02-23 17:30:36  22   38 
 2019-02-23 17:29:32  22   37 
 2019-02-23 17:29:26  22   37 
 2019-02-23 17:29:20  22   37 
 2019-02-23 17:28:16  22   37 
 2019-02-23 17:19:05  22   37 
 2019-02-23 17:19:00  22   37 
 2019-02-23 17:18:54  22   37 
 2019-02-23 17:18:49  22   37 
 2019-02-23 17:18:44  22   37 
 2019-02-23 17:18:39  22   37 
 2019-02-23 17:18:34  22   38 
 2019-02-23 17:18:28  22   38 
 2019-02-20 19:18:21  20   40